Location: Arcueil
(48.7999°N, 2.3326°E)
Time: 19:40:10
(UTC+00:00)

JY1SAT - Pass Details

Date: 19 June 2024
Orbit: 535 x 549 km, 97.5° (Epoch: 18 July)

Event Time Altitude Azimuth Distance (km) Brightness Sun altitude
Exits shadow 21:23:58 - 195° (SSW) 2,320 ? -10.5°
Reaches altitude 10° 21:25:18 10° 203° (SSW) 1,818 ? -10.7°
Maximum altitude 21:28:46 29° 265° (W) 1,019 ? -11.0°
Drops below altitude 10° 21:32:17 10° 327° (NNW) 1,841 ? -11.3°
Sets 21:34:39 0° 338° (NNW) 2,743 ? -11.5°
